Simultaneous Nadir Overpasses (SNOs) Predictions

Prediction of SNOs between AQUA and NOAA-19 Satellite Orbit:

Table of predicted SNOs for the next 14.0 days since TLE Epoch: 1/6/2017
Index Date (AQUA) Time (AQUA) Lat,Lon (AQUA) SZA (AQUA ) Date (NOAA-19) Time (NOAA-19) Lat,Lon (NOAA-19) SZA (NOAA-19 ) Distance(km) Time Diff (sec)
1 01/08/2017 12:21:44 80.95, -46.12 105.33 01/08/2017 12:20:34 80.95, -46.02 105.35 1.85 70
2 01/08/2017 13:11:10 -80.95, 121.62 74.69 01/08/2017 13:11:39 -80.95, 121.73 74.71 1.96 29
3 01/10/2017 17:55:28 -80.96, 50.32 74.95 01/10/2017 17:54:35 -80.96, 50.40 74.94 1.62 53
4 01/10/2017 18:44:54 80.94,-141.77 105.01 01/10/2017 18:45:29 80.95,-141.82 105.00 1.15 35
5 01/12/2017 23:29:12 80.96, 146.90 104.71 01/12/2017 23:28:25 80.96, 146.83 104.74 1.36 47
6 01/13/2017 00:18:38 -80.96, -45.35 75.31 01/13/2017 00:19:30 -80.95, -45.43 75.33 1.36 52
7 01/15/2017 05:02:55 -80.95,-116.36 75.69 01/15/2017 05:02:25 -80.96,-116.44 75.66 1.61 30
8 01/15/2017 05:52:22 80.96, 51.19 104.32 01/15/2017 05:53:20 80.95, 51.01 104.31 3.14 58
9 01/17/2017 10:36:39 80.96, -19.85 103.92 01/17/2017 10:36:15 80.96, -19.97 103.94 2.17 24
10 01/17/2017 11:26:01 -80.84, 149.29 76.34 01/17/2017 11:27:15 -80.93, 149.54 76.33 10.45 74




NCC Satellite Simultaneous Nadir Overpasses (SNOs) Prediction Service
